sat.trackr.live / text

‹ back to catalog

ORBCOMM FM32

NORAD 25982 · 1999-065C

PAYLOAD ACTIVE UNKNOWN

§ Identity

Operator
Country
ORB
Launch date
1999-12-04
Launch site
ERAS
Launch vehicle
Mass (kg)
RCS (m²)
0.85

Purposes: comms

External: N2YO · Heavens-Above · Gunter

§ Orbital elements

Epoch: 2026-09-15T22:26:57.997536Z

Period
100.19 min
Inclination
45.0146°
Eccentricity
0.0006154
Mean motion
14.37240002 rev/d
Perigee alt
763.2 km
Apogee alt
772.0 km
Semi-major
7,145.8 km
B*
1.9862e-4
RAAN
103.6541°
Arg perigee
144.4984°
Mean anomaly
215.6275°
Rev number
40,014

§ Raw data

ORBCOMM FM321 25982U 99065C   26258.93539349  .00000455  00000+0  19862-3 0  99952 25982  45.0146 103.6541 0006154 144.4984 215.6275 14.37240002400148

JSON: /api/v1/satellites/25982 · /tle

For live sub-satellite position, see the globe view (requires WebGL).

§ Visibility from observer

Set your observer location to see the next 7 days of passes ≥ 10°. The values pass through the URL so the page stays shareable.

No JS? Fill the form by hand. The geolocation button needs JavaScript.